Starlink 11186

operational
NORAD ID: 60070 Int'l Des: 2024-113 Owner: SPXS Country: US Constellation: starlink
LEOCIRCULAR

About Starlink 11186

Description loading...

Live Position

Loading 3D Globe...

Upcoming Passes

Altitude History

Altitude vs Time

uPlot chart will show altitude changes over time

Two-Line Element Set

1 60070U 24113M 25303.20424408 .00000361 00000-0 78189-5 0 9999
2 60070 53.1585 114.7028 0000224 125.1025 235.0014 15.69722300 79476
Epoch: Oct 30, 2025 • Age: 40 hours

Current Status

Altitude 370.5 km
Velocity 7.69 km/s
Sub-Earth Point -33.97°S, 89.4°E
Launch Date Jun 19, 2024
Age 1.3 years
Type internet

Technical Details

Classification Payload
Mass 960.00 kg
Dry Mass 910.00 kg
Total Mass 960.00 kg
Length 0.30 m
Diameter 4.10 m
Span 29.00 m
Shape Box + pan
Manufacturer SPXS
Bus Type Starlink V2MD
Phase Status In Orbit
Owner/State SPXS/US

Large Constellations

Loading constellations...